Location: Antioch Baptist Church
(32.6696°N, 85.7327°W)
Time: 20:27:18
(UTC+00:00)

Resurs 01 Rocket - Pass Details

Date: 14 July 2020
Orbit: 635 x 644 km, 98.0° (Epoch: 13 August)

Event Time Altitude Azimuth Distance (km) Brightness Sun altitude
Exits shadow 03:08:51 19° 222° (SW) 1,500 3.4 -23.6°
Maximum altitude 03:10:52 27° 263° (W) 1,224 3.3 -23.9°
Drops below altitude 10° 03:14:36 10° 321° (NW) 2,024 5.3 -24.4°
Sets 03:17:06 0° 334° (NNW) 2,936 6.3 -24.7°
